Location: Zapote
(9.9191°N, 84.0597°W)
Time: 03:16:03
(UTC-06:00)

Hubble Space Telescope - Pass Details

Date: 01 February 2021
Orbit: 536 x 539 km, 28.5° (Epoch: 26 February)

Event Time Altitude Azimuth Distance (km) Brightness Sun altitude
Rises 17:55:38 0° 292° (WNW) 2,667 5.2 -4.2°
Reaches altitude 10° 17:57:55 10° 288° (WNW) 1,778 4.4 -4.7°
Maximum altitude 18:01:58 57° 209° (SSW) 631 1.4 -5.7°
Drops below altitude 10° 18:06:01 10° 131° (SE) 1,780 3.1 -6.7°
Sets 18:08:18 0° 127° (SE) 2,671 4.0 -7.2°
